Flag for U.S.A. Weather past 2 weeks in Atascadero, California, U.S.A.

Now
40 °F

Sunny.


Feels Like: 40 °F
Forecast: 43 / 67 °F
Wind: No wind

Location: Paso Robles Municipal Airport

Current Time: Jan 26, 2015 at 9:05:25 AM

Latest Report: Jan 26, 2015 at 7:53 AM


Visibility: 10 mi

Pressure: 30.05 "Hg

Humidity: 83%

Dew point: 35 °F

Location of AtascaderoLocation

Historic Weather in Atascadero — Graph

°F

Atascadero temperature yesterday

Maximum temperature yesterday: 77 °F (at 3:53 PM)
Minimum temperature yesterday: 32 °F (at 6:53 AM)
Average temperature yesterday: 51 °F

Past Weeks' High & Low Weather Summary

 TemperatureHumidityPressure
High77 °F (Jan 25, 3:53 PM)97% (Jan 12, 2:53 AM)30.37 "Hg (Jan 12, 2:53 AM)
Low32 °F (Jan 23, 6:53 AM)24% (Jan 25, 3:53 PM)29.98 "Hg (Jan 25, 3:53 PM)
Average49 °F76%30.19 "Hg
* Reported Jan 11 7:53 AM — Jan 26 7:53 AM, Atascadero, Weather by CustomWeather, © 2014

Note: Actual official high and low records may vary slightly from our data, if they occured in-between our weather recording intervals... More about our weather records

Advertising

Atascadero weather history for previous 24 hours

 ConditionsComfort  
Time TempWeatherWind HumidityBarometerVisibility
7:53 AM
Jan 26
40 °FSunny.No wind83%30.05 "Hg10 mi
6:53 AM39 °FClear.3 mph82%30.04 "Hg10 mi
5:53 AM39 °FClear.3 mph82%30.03 "Hg10 mi
4:53 AM40 °FClear.3 mph83%30.03 "Hg10 mi
3:53 AM42 °FClear.No wind79%30.03 "Hg10 mi
2:53 AM43 °FClear.3 mph79%30.03 "Hg10 mi
1:53 AM45 °FClear.No wind74%30.05 "Hg10 mi
12:53 AM44 °FClear.No wind79%30.05 "Hg10 mi
11:53 PM
Jan 25
45 °FClear.5 mph71%30.06 "Hg10 mi
10:53 PM50 °FClear.6 mph59%30.08 "Hg10 mi
9:53 PM51 °FClear.No wind56%30.08 "Hg10 mi
8:53 PM53 °FClear.6 mph52%30.06 "Hg10 mi
7:53 PM55 °FClear.7 mph51%30.04 "Hg10 mi
6:53 PM60 °FClear.5 mph44%30.02 "Hg10 mi
5:53 PM61 °FClear.7 mph44%29.99 "Hg10 mi
4:53 PM72 °FSunny.No wind38%29.99 "Hg10 mi
3:53 PM77 °FSunny.No wind24%29.98 "Hg10 mi
2:53 PM75 °FSunny.3 mph31%29.99 "Hg10 mi
1:53 PM71 °FSunny.No wind34%30.01 "Hg10 mi
12:53 PM65 °FSunny.6 mph42%30.04 "Hg10 mi
11:53 AM60 °FSunny.3 mph46%30.09 "Hg10 mi
10:53 AM53 °FSunny.No wind52%30.14 "Hg10 mi
9:53 AM47 °FSunny.No wind66%30.15 "Hg10 mi
Weather by CustomWeather, © 2014

See weather overviewHow to use our weather pages